Location: Stigler
(35.2540°N, 95.1230°W)
Time: 04:15:51
(UTC-06:00)

Daily predictions for brighter satellites

Satellite Brightness Start Highest point End
(mag) Time Altitude Azimuth Time Altitude Azimuth Time Altitude Azimuth
Cosmos 2278 Rocket 3.7 04:14:02 30° SE 04:14:02 30° SE 04:16:53 10° SE
SL-16 R/B 3.4 04:17:22 37° ENE 04:17:22 37° ENE 04:21:19 10° NE
Cosmos 1680 Rocket 4.1 04:38:54 55° E 04:38:54 55° E 04:43:52 10° NNE
USA 215 3.1 04:33:55 10° NE 04:40:29 88° NW 04:40:47 82° WSW
Cosmos 2181 Rocket 4.2 04:42:26 29° N 04:45:54 73° E 04:52:13 10° SSE
CZ-3 R/B 3.9 04:37:09 10° SW 04:51:59 28° S 04:57:24 10° ESE
CENTAUR R/B 3.1 04:58:46 41° NNW 04:58:46 41° NNW 05:03:43 10° NNE
Cosmos 2112 Rocket 4.1 04:52:25 10° S 04:57:37 72° ESE 05:02:48 10° NNE
Feng Yun 1-1 Rocket 4.1 04:53:27 10° NNE 04:59:05 88° WNW 05:04:33 10° SSW
OAO 3 Copernicus 4.4 05:00:48 69° SSE 05:00:48 69° SSE 05:05:52 10° E
Tiangong 2 4.0 05:05:56 13° NE 05:05:56 13° NE 05:06:21 10° NE
Gbstr 26 Del rocket 3.3 05:08:43 59° NNE 05:08:59 60° NE 05:13:05 10° ESE
Cosmos 972 4.4 05:09:28 46° NNW 05:11:11 88° WSW 05:16:16 10° SSE
Cosmos 1238 Rocket 3.9 05:08:45 18° N 05:12:25 64° E 05:18:08 10° SSE
DASH 3.8 05:17:00 24° S 05:17:48 27° SSE 05:22:26 10° E
Thor Agena Rocket 3.7 05:15:55 10° S 05:20:20 47° WSW 05:20:20 47° WSW
Meteor 1-20 Rocket 4.1 05:18:38 10° S 05:24:16 90° W 05:29:49 10° N
Lacrosse 5 2.9 05:25:58 10° SSW 05:30:49 46° SE 05:35:42 10° NE
COSMO-SKYMED 1 2.9 05:27:31 10° SSE 05:31:48 64° ENE 05:36:06 10° N
Cosmos 921 Rocket 3.4 05:31:59 16° N 05:35:31 68° ENE 05:40:00 10° SSE
Cosmos 2297 3.8 05:36:46 31° NW 05:39:07 51° WSW 05:44:34 10° S
SJ-6F 4.4 05:35:33 10° N 05:39:32 54° WNW 05:43:29 10° SSW
Cosmos 2056 Rocket 4.5 05:38:25 10° N 05:43:23 45° ENE 05:48:15 10° SE
DELTA 2 R/B (1) 3.7 05:42:22 32° W 05:44:49 60° SSW 05:50:16 10° SE
Okean 1 3.2 05:45:17 13° N 05:48:51 76° W 05:52:52 10° S
Cosmos 44 Rocket 3.9 05:44:28 10° SSW 05:49:34 63° ESE 05:54:40 10° NE
Meteor 1-11 Rocket 4.2 05:47:29 10° S 05:53:19 68° E 05:59:05 10° NNE
Cosmos 2278 Rocket 3.8 05:55:57 15° WSW 05:55:57 15° WSW 05:58:05 10° SW
Cosmos 2074 Rocket 4.2 05:49:39 10° SSW 05:55:41 48° W 06:01:44 10° N
USA 32 4.1 05:50:39 10° NNW 05:55:41 51° W 06:00:44 10° SSW
Cosmos 1624 Rocket 4.3 05:52:16 10° NNW 05:57:33 70° ENE 06:02:50 10° SSE
Cosmos 1300 Rocket 3.4 05:53:42 10° S 05:58:07 76° W 06:02:33 10° N
SL-16 R/B 3.2 05:59:24 22° WNW 06:00:13 23° WNW 06:04:39 10° N
Cosmos 1602 3.7 05:57:17 10° S 06:01:14 85° W 06:05:12 10° N
Cosmos 1371 Rocket 4.0 05:56:18 10° NNW 06:01:39 86° WSW 06:06:53 10° SSE
CRYOSAT 2 4.5 05:57:13 10° S 06:01:57 53° W 06:06:45 10° NNW
Ariane Rocket 2.9 05:57:23 10° N 06:02:26 71° WNW 06:07:27 10° SSW
ATLAS CENTAUR Rocket 3.3 05:55:54 14° W 06:04:34 44° SSW 06:08:31 10° ESE
Cosmos 1812 3.5 06:03:42 23° NW 06:05:03 29° W 06:08:26 10° SSW
GPS 2-05 Rocket1 2.8 06:05:47 25° W 06:07:47 88° NNE 06:11:25 10° E
Cosmos 1346 Rocket 2.8 06:04:34 10° NNW 06:08:22 52° W 06:12:11 10° S
Cosmos 2184 Rocket 4.4 06:03:52 10° SW 06:09:31 38° WNW 06:15:14 10° N
Meteor 1-13 Rocket 4.4 06:03:40 10° N 06:09:39 90° S 06:15:35 10° S
CZ-4 R/B 2.0 06:13:12 10° NNE 06:17:06 58° E 06:20:56 10° S
SKYMED 2 4.3 06:16:01 10° SSW 06:19:55 33° W 06:23:51 10° NNW
USA 215 4.2 06:17:37 10° NNE 06:22:53 27° NNW 06:28:09 10° W
Cosmos 2154 Rocket 4.0 06:18:36 10° SSW 06:24:43 58° W 06:30:50 10° N
Meteor 1-28 Rocket 3.5 06:24:15 10° S 06:27:53 46° W 06:31:34 10° NNW
Cosmos 1536 2.8 06:26:16 10° SSW 06:30:12 62° W 06:34:11 10° N
Cosmos 1633 3.1 06:26:57 10° SSW 06:30:21 36° W 06:33:44 10° NNW
Cosmos 1452 Rocket 4.3 06:27:50 10° N 06:33:01 54° ENE 06:38:09 10° SSE
Abrixas rocket 2.4 06:32:12 10° WSW 06:35:29 53° NW 06:38:47 10° NE
IRS-1A Rocket 4.3 06:33:28 10° N 06:39:07 64° WNW 06:44:50 10° SSW
Tiangong 2 2.9 06:38:11 10° NW 06:40:35 20° N 06:43:00 10° NE
Meteor 2-4 Rocket 3.7 06:38:21 10° NNW 06:43:51 78° W 06:49:29 10° S
Helios 1B rocket 2.8 06:40:04 10° SSE 06:44:10 70° ENE 06:48:19 10° N
OAO 3 Copernicus 4.4 06:40:15 10° W 06:45:21 88° S 06:50:28 10° E
DELTA 2 R/B(2) 4.5 06:43:39 10° WNW 06:45:53 26° NNW 06:47:25 10° NE
CENTAUR R/B 4.3 06:48:09 10° NW 06:49:51 11° NNW 06:51:36 10° NNW
AQUARIUS 4.1 06:45:52 10° N 06:50:22 76° WNW 06:54:51 10° SSW
CZ-2C R/B 2.5 06:46:15 10° N 06:51:26 77° WNW 06:56:29 10° SSW
Meteor 1-5 Rocket 4.1 06:46:24 10° SSW 06:51:50 78° W 06:57:10 10° N
